Location: Chmeln�
(49.6483°N, 14.9871°E)
Time: 06:14:02
(UTC+00:00)

Lacrosse 5 rocket - Pass Details

Date: 23 January 2021
Orbit: 465 x 630 km, 57.0° (Epoch: 06 March)

Event Time Altitude Azimuth Distance (km) Brightness Sun altitude
Exits shadow 03:25:03 18° 101° (ESE) 1,304 3.9 -31.8°
Drops below altitude 10° 03:26:06 10° 106° (ESE) 1,705 4.6 -31.7°
Sets 03:28:14 0° 111° (ESE) 2,562 5.6 -31.3°
